Orbital Elements at Epoch 2459000.5 (2020-May-31.0) TDB
Reference: JPL 21 (heliocentric ecliptic J2000)
Element | Value | Uncertainty (1-sigma) | Units |
e | .0647167669525095 | 3.2434e-08 | |
a | 2.278453328618594 | 8.4801e-09 | au |
q | 2.130999195538215 | 7.4256e-08 | au |
i | 7.691000089751399 | 4.0562e-06 | deg |
node | 184.1279291314546 | 2.7193e-05 | deg |
peri | 288.7440409152763 | 4.3421e-05 | deg |
M | 286.6220257140283 | 3.461e-05 | deg |
tp | 2459256.548272339228 (2021-Feb-11.04827234) | 0.00012133 | TDB |
period | 1256.19954678613 3.44 | 7.0131e-06 1.92e-08 | d yr |
n | .2865786736836727 | 1.5999e-09 | deg/d |
Q | 2.425907461698973 | 9.0289e-09 | au |
|
| | Orbit Determination Parameters
Additional Information
|